Regional Weather Roundup
Issued by NWS San Diego, CA

Home | Current Version | Previous Version | Text Only | Print | Product List | Glossary On
Versions: 1 2 3 4 5 6 7 8 9 10 11 12 13 14 15 16 17 18 19 20 21 22 23 24 25 26 27 28
000
ASUS46 KSGX 090311
RWRSGX

SAN DIEGO HOURLY WEATHER ROUNDUP
NATIONAL WEATHER SERVICE SAN DIEGO CA
700 PM PST THU DEC 08 2016

NOTE: "FAIR" INDICATES FEW OR NO CLOUDS BELOW 12,000 FEET WITH NO
SIGNIFICANT WEATHER AND/OR OBSTRUCTIONS TO VISIBILITY.

CAZ042-043-060-061-PZZ750-775-090400-

GREATER SAN DIEGO AREA

CITY           SKY/WX    TMP DP  RH WIND       PRES   REMARKS
SAN DIEGO AP   PTCLDY    60  52  74 N5        30.25R
NATIONAL CITY    N/A     59  54  83 CALM      30.24S
CHULA VISTA      N/A     58  54  85 NW1       30.16S
IMPERIAL BEACH PTCLDY    60  52  74 NW5       30.24S
BROWN FIELD    CLEAR     56  52  86 CALM      30.23S
MIRAMAR MCAS   PTCLDY    59  53  80 N5        30.23S
MONTGOMERY FLD CLEAR     57  51  80 N3        30.24R

$$

NORTH SAN DIEGO COUNTY

CITY           SKY/WX    TMP DP  RH WIND       PRES   REMARKS
CAMP PENDLETON PTCLDY    56  48  74 CALM      30.23R
OCEANSIDE AP   CLEAR     58  51  78 W5        30.22R
OCEANSIDE HBR    N/A     60  54  82 NW10      30.26R
VISTA            N/A     56  50  81 CALM      30.22R
CARLSBAD       CLEAR     57  52  83 CALM      30.23R
DEL MAR          N/A     56  53  90 CALM      30.27R
LA JOLLA SCRIP   N/A     58  55  89 NW3       30.24R
FALLBROOK        N/A     55  52  90 CALM      30.21R
ESCONDIDO        N/A     57  50  78 CALM      30.26R
SAN MARCOS       N/A     56  49  76 CALM      30.26R
POWAY            N/A     54  48  82 CALM      30.27R

$$

EAST SAN DIEGO COUNTY

CITY           SKY/WX    TMP DP  RH WIND       PRES   REMARKS
RAMONA         CLEAR     46  43  89 CALM      30.23S
SANTEE LAKES     N/A     56  50  82 CALM      30.23S
LA MESA          N/A     56  51  84 CALM      30.18R
JAMUL            N/A     53  48  82 CALM      30.25S
DESCANSO N       N/A     42  38  86 NE3       30.23R
CAMPO            N/A     45  38  76 NE5       30.21R

$$

ORANGE COUNTY AND THE LOS ANGELES BASIN

CITY           SKY/WX    TMP DP  RH WIND       PRES   REMARKS
JOHN WAYNE AP  PTCLDY    59  52  77 CALM      30.23S
LAGUNA BEACH     N/A     55  49  80 CALM      30.19R
LAKE FOREST FR   N/A     54  42  65 CALM      30.14R
HUNTINGTON BCH   N/A     58  54  86 W2        30.25R
LOS ALAMITOS   PTCLDY    56  49  79 W5        30.23R
FULLERTON      CLEAR     59  49  69 CALM      30.23R
LONG BEACH     CLEAR     58  51  78 N3        30.24R
L.A. AP        PTCLDY    60  55  83 W15       30.23R
L.A. DOWNTOWN  CLEAR     57  53  86 CALM      30.22R

$$

THE INLAND EMPIRE

CITY           SKY/WX    TMP DP  RH WIND       PRES   REMARKS
CORONA         CLEAR     57  45  64 CALM      30.23R
CHINO          CLEAR     55  46  71 NW5       30.24R
ONTARIO        PTCLDY    56  43  61 W6        30.22S
SAN BERNARDINO FAIR      57  41  54 CALM      30.23R
RIVERSIDE AP   CLEAR     57  45  64 CALM      30.22S
MORENO VALLEY    N/A     55  47  76 CALM      28.32R
MARCH ARB      CLEAR     51  43  74 NW7       30.21S
HORSETHIEF CYN   N/A     53  40  60 W3        30.27R
PERRIS           N/A     57  46  65 CALM      30.25R
HEMET EAST       N/A     52  38  57 CALM      30.30R
FRENCH VALLEY  NOT AVBL
TEMECULA         N/A     57  52  83 S1        30.28R

$$

SAN BERNARDINO AND RIVERSIDE COUNTY MOUNTAINS

CITY           SKY/WX    TMP DP  RH WIND       PRES   REMARKS
BIG BEAR AP    CLEAR     37  34  87 CALM      30.32R
PINE COVE        N/A     45  40  83 N6        30.25S

$$

SOUTHERN DESERT INCLUDING THE COACHELLA VALLEY

CITY           SKY/WX    TMP DP  RH WIND       PRES   REMARKS
PALM SPRINGS   CLEAR     59  28  30 CALM      30.23R
PALM DESERT      N/A     56  33  41 CALM      30.07S
THERMAL        CLEAR     48  29  47 N3        30.20R
BLYTHE         PTCLDY    56  18  22 E5        30.21S
IMPERIAL AP    CLEAR     57  30  35 CALM      30.20R
EL CENTRO NAS  PTCLDY    55  28  35 CALM      30.22R
YUMA AZ        CLEAR     60  16  18 N7        30.20
MEXICALI       CLEAR     57  21  24 NW6       30.20R

$$

UPPER DESERT

CITY           SKY/WX    TMP DP  RH WIND       PRES   REMARKS
VICTORVILLE AP   N/A     55  36  47 CALM      30.21R
HESPERIA         N/A     53  38  57 W3        30.39S
PALMDALE       MOCLDY    56  38  50 SW7       30.22R
LANCASTER      CLEAR     54  42  64 W12       30.21S
EDWARDS AFB    MOCLDY    57  38  48 S6        30.19R
DAGGETT        CLEAR     49  14  24 CALM      30.21R
29 PALMS N     CLEAR     50  10  20 N3        30.28R
NEEDLES        PTCLDY    53   9  17 NW7       30.24R

$$

REGIONAL REPORTS

CITY           SKY/WX    TMP DP  RH WIND       PRES   REMARKS
SANTA BARBARA  CLOUDY    57  56  96 W7        30.23S
SANDBERG       PTCLDY    49  33  54 VRB6      30.27R
LAS VEGAS NV   MOCLDY    51   8  17 CALM      30.25R
PHOENIX AZ     CLEAR     60  42  51 W5        30.18R
TIJUANA        PTCLDY    57  50  77 CALM      30.26R
ENSENADA NW      N/A     59  32  35 CALM      30.19S

$$

OFFSHORE ISLANDS

CITY           SKY/WX    TMP DP  RH WIND       PRES   REMARKS
CATALINA ARPT  MOCLDY    52  51  97 W9        30.25S
SAN NICOLAS IS PTCLDY    56  32  40 W13       30.25R

$$

MARINE AND OFFSHORE BUOY REPORTS

STATION/POSITION SKY/WX   TEMP    WIND        PRES    SWELL
                          AIR SEA DIR/SP/G            HT/PER/DIR
                          (F)     (DEG/KT/KT) (MB)    (FT/S/D)
TANNER BANKS               60 62  310/ 10/ 12 1024.6R   2/260/15
S CLEMENTE BASIN           59 62  300/ 10/ 12 1024.0R   2/260/11
SAN NICOLAS IS.               58                N/A     2/220/15
SO. S. ROSA ISLA           58 58  240/  6/  6 1024.5R   3/270/16
W. S. BARBARA CH           57 56  190/  6/  6 1024.1S   3/250/15
M. S. BARBARA CH                  290/  8/ 10 1024.5R
S. MONICA BASIN            60 60  310/  8/ 10 1023.8R   2/190/15
S PEDRO CHANNEL               61                N/A     2/260/15
CMP PENDLETON NS              61                N/A     2/210/15
OCEANSIDE OFFSHR              62                N/A     2/190/15
TORREY PINES OTR              62                N/A     2/230/15
POINT LOMA SOUTH              62                N/A     2/200/15

$$





USA.gov is the U.S. government's official web portal to all federal, state and local government web resources and services.